Home > Weather > Unalaska > Past weeks

Flag for USA Past Weather in Unalaska, Alaska, USA — Yesterday and Last 2 Weeks

Now
48 °F

Partly sunny.


Feels Like: 45 °F
Forecast: 45 / 49 °F
Wind: 8 mph from East

Location: Dutch Harbor

Current Time: May 28, 2016 at 9:55:37 PM

Latest Report: May 28, 2016 at 8:56 PM


Visibility: 10 mi

Pressure: 30.02 "Hg

Humidity: 66%

Dew Point: 37 °F

Location of UnalaskaLocation

Past Weather in Unalaska — Graph

°F

Unalaska Temperature Yesterday

Maximum temperature yesterday: 50 °F (at 10:59 AM)
Minimum temperature yesterday: 46 °F (at 6:59 AM)
Average temperature yesterday: 47 °F

High & Low Weather Summary for the Past Weeks

 TemperatureHumidityPressure
High54 °F (May 24, 5:45 PM)100% (May 15, 11:55 AM)30.39 "Hg (May 15, 11:55 AM)
Low32 °F (May 19, 6:46 AM)53% (May 18, 8:58 PM)29.77 "Hg (May 20, 5:59 AM)
Average46 °F77%30.04 "Hg
* Reported May 13 8:55 PM — May 28 7:55 PM, Unalaska, Weather by CustomWeather, © 2016

Note: Actual official high and low records may vary slightly from our data, if they occured in-between our weather recording intervals... More about our weather records

Advertising

Unalaska Weather History for the Previous 24 Hours

Scroll right to see more
 ConditionsComfort  
Time TempWeatherWind HumidityBarometerVisibility
7:55 PM
Sat, May 28
48 °FPartly sunny.8 mph66%30.01 "Hg10 mi
6:56 PM50 °FPartly sunny.12 mph62%30.00 "Hg10 mi
3:56 PM49 °FOvercast.13 mph64%30.01 "Hg10 mi
2:59 PM49 °FOvercast.13 mph61%30.01 "Hg10 mi
1:56 PM50 °FPartly sunny.13 mph63%30.01 "Hg10 mi
12:59 PM48 °FOvercast.14 mph68%30.00 "Hg10 mi
11:59 AM47 °FOvercast.20 mph74%30.01 "Hg10 mi
10:56 AM48 °FMore clouds than sun.12 mph71%30.00 "Hg10 mi
9:56 AM47 °FBroken clouds.14 mph71%29.98 "Hg10 mi
8:56 AM45 °FMore clouds than sun.15 mph82%29.98 "Hg10 mi
7:56 AM46 °FMore clouds than sun.12 mph77%29.97 "Hg10 mi
6:56 AM46 °FMostly cloudy.10 mph77%29.96 "Hg10 mi
5:56 AM46 °FPassing clouds.8 mph73%29.95 "Hg10 mi
4:59 AM45 °FMostly cloudy.6 mph81%29.95 "Hg10 mi
4:56 AM45 °FMostly cloudy.6 mph82%29.94 "Hg10 mi
2:56 AM45 °FLight rain. Mostly cloudy.14 mph82%29.94 "Hg10 mi
1:56 AM45 °FLight rain. Mostly cloudy.14 mph82%29.94 "Hg10 mi
10:56 PM
Fri, May 27
46 °FLight rain. Fog.5 mph93%29.92 "Hg2 mi
10:04 PM46 °FMostly cloudy.3 mph93%29.91 "Hg10 mi
9:56 PM46 °FLight rain. Overcast.No wind89%29.91 "Hg10 mi
Weather by CustomWeather, © 2016

See weather overviewHow to use our weather pages